Dewpoint
36 38 39 38 38 38 40 42 43 43 46 47 50 52 52 51 51 47 43 43 40 33 33 33 30 29 28 29 26 28 27 28 27 23 21 19 15 13 14 13 19 20 21 20 21 19 14 22 12 7 12 20 25 27
35 35 37 38 38 38 38 39 42 43 43 46 47 49 52 51 51 48 42 42 41 37 35 36 35 35 34 29 30 30 26 28 28 23 24 20 18 16 13 12 20 16 21 20 22 21 23 20 14 21 21 21 23 27
36 36 35 37 37 38 38 38 39 41 42 43 46 48 52 52 51 48 42 41 41 38 37 35 34 35 35 34 34 30 31 29 30 29 26 23 20 21 17 17 14 16 20 18 16 18 18 19 18 19 23 22 26 28
36 36 35 36 37 37 37 37 38 39 40 41 43 46 48 52 51 47 43 41 40 37 33 31 35 32 35 35 34 34 32 32 31 29 25 24 20 23 20 20 18 19 18 17 16 17 18 17 17 20 22 25 27 28
36 36 35 35 36 37 37 36 37 38 39 40 41 43 46 50 51 47 44 41 41 36 31 31 33 33 34 34 34 34 32 31 29 28 27 25 27 25 24 23 22 21 19 18 18 19 18 19 23 19 24 24 27 27
36 36 36 35 35 37 37 36 36 37 38 39 40 42 45 47 50 46 41 44 42 40 33 27 33 31 32 33 34 33 33 33 32 29 28 29 30 25 23 21 23 23 22 21 19 22 22 23 27 25 23 24 26 28
35 36 36 34 35 38 37 36 36 36 37 38 40 41 44 47 48 43 40 43 43 42 36 29 27 32 33 33 34 34 34 33 32 31 29 29 28 28 25 23 23 25 25 25 23 23 22 24 23 26 25 25 30 28
35 36 35 34 34 37 38 37 36 36 37 38 40 42 45 46 47 43 44 46 43 40 37 29 31 28 33 31 31 34 32 32 32 30 30 29 30 28 25 26 27 27 28 28 26 23 23 24 26 26 27 27 27 28
34 35 35 35 34 35 38 37 35 38 38 40 42 44 47 46 41 42 47 46 45 41 34 32 27 24 34 32 32 32 31 28 29 29 28 29 28 26 28 27 28 29 29 29 25 24 25 24 25 26 26 26 26 27
33 33 34 36 35 35 37 36 35 38 41 42 42 39 34 41 47 45 42 39 38 39 35 28 28 27 32 31 30 30 29 28 22 28 29 28 28 30 28 25 26 28 28 29 25 24 24 24 26 25 25 26 27 27
34 33 33 34 34 34 37 34 37 40 40 38 34 33 39 45 40 36 31 32 32 31 35 33 29 30 33 29 29 29 26 26 19 23 26 24 26 29 26 26 25 25 29 29 29 26 25 26 26 26 26 26 27 28
34 34 35 34 34 35 35 34 36 40 38 37 35 39 40 35 32 31 30 31 31 28 33 31 29 31 32 33 29 29 25 25 17 26 23 21 25 27 27 27 26 26 28 28 29 27 27 26 26 27 27 27 27 27
36 35 33 33 33 36 33 34 35 40 40 38 33 32 31 31 28 26 24 28 29 32 32 31 26 30 31 33 30 28 24 20 26 25 21 22 26 27 27 27 26 27 27 27 27 27 27 27 28 27 26 26 26 25
34 36 35 34 36 32 33 34 37 39 38 32 30 26 27 25 27 23 21 29 32 33 32 31 31 31 33 32 31 29 29 27 23 21 18 22 25 26 26 26 27 28 27 27 27 27 27 27 26 26 27 25 24 23
31 33 35 36 33 34 34 36 39 37 35 29 29 23 24 28 28 29 31 32 32 33 32 31 31 32 31 29 30 25 21 23 23 20 24 24 26 26 26 26 27 27 29 27 26 26 24 24 25 26 25 24 23 22
34 35 34 35 34 36 36 36 34 34 29 29 27 25 29 23 24 30 31 31 33 33 34 32 29 29 28 29 23 21 19 16 22 25 26 26 25 27 27 28 27 26 28 28 27 26 25 25 25 24 23 23 22 21
34 30 37 34 36 36 34 31 28 18 20 25 24 28 27 26 27 28 30 30 34 34 30 25 23 26 28 24 22 24 21 25 27 26 25 24 26 26 26 28 27 27 26 26 25 26 25 24 23 24 23 22 22 21
30 32 37 35 34 29 27 27 18 13 15 23 23 25 28 27 28 30 31 33 33 31 28 23 25 25 22 18 22 26 25 26 26 25 24 22 24 26 26 26 27 26 26 26 25 24 23 22 22 23 23 22 21 21
31 32 36 34 31 24 15 20 21 14 16 23 26 26 26 27 28 29 32 34 33 33 30 28 26 24 25 25 24 25 25 26 23 25 24 20 24 25 27 27 27 26 26 25 25 24 24 23 23 23 22 21 20 20
35 37 35 32 28 16 20 22 24 20 19 23 23 23 24 24 25 26 27 28 29 29 26 25 26 29 28 31 31 28 29 29 25 19 18 19 22 24 26 26 26 27 26 25 25 26 25 23 22 22 22 22 20 20
35 34 32 28 19 17 24 24 23 25 24 21 23 22 21 23 22 22 22 25 23 22 24 27 27 26 29 24 25 25 23 24 22 22 21 22 23 26 26 25 24 26 26 26 26 26 26 25 25 24 22 22 23 22
34 31 20 20 10 8 20 24 24 26 22 21 19 20 17 16 18 18 21 16 12 20 23 24 23 23 23 22 23 23 23 23 23 23 24 25 23 23 23 24 23 21 22 23 25 26 27 27 27 25 23 22 23 23
29 23 11 7 7 6 14 23 15 18 9 15 15 5 10 16 20 21 10 9 14 20 23 22 22 23 22 23 23 23 23 24 24 24 24 23 24 24 23 23 23 19 20 24 23 23 23 29 28 27 25 24 21 20
25 12 7 2 1 5 19 14 19 16 13 3 -2 -1 9 15 17 7 2 7 16 21 19 18 21 21 22 20 19 21 23 20 20 19 23 22 19 22 23 23 23 23 24 24 21 21 20 25 27 25 23 17 16 17
11 10 7 7 -2 -0 -3 4 6 12 -2 10 -3 -1 12 15 10 -3 1 6 11 17 17 17 18 20 19 21 21 21 22 20 21 24 24 22 21 22 21 20 23 23 22 18 18 19 18 16 16 15 15 14 14 12
5 13 3 -4 4 2 5 -3 -5 -1 5 7 11 1 1 13 7 4 3 5 12 13 14 15 17 17 18 21 22 22 22 21 25 24 24 24 21 22 21 22 23 20 20 18 18 16 16 15 14 13 16 17 23 16
0 3 8 18 14 11 10 10 10 4 -5 -3 -3 -1 -3 -5 -7 4 10 13 15 14 16 16 18 20 22 22 23 23 24 25 25 24 22 20 22 20 22 22 17 21 20 16 17 17 15 15 15 14 13 13 13 12
9 11 4 7 12 11 3 3 -1 -1 0 5 6 -3 -0 2 4 15 13 15 10 7 5 12 19 20 18 18 20 20 18 19 20 19 22 23 21 19 17 18 22 26 20 18 15 15 14 12 12 10 9 10 8 9
7 12 15 7 8 10 8 8 8 13 14 9 5 4 4 10 13 12 16 12 6 3 6 12 12 14 14 15 17 18 18 19 19 19 19 16 15 16 16 15 14 13 13 15 25 22 16 13 10 7 4 5 4 -0
10 10 9 8 9 11 13 14 14 17 20 20 20 17 16 14 13 14 7 3 2 2 5 8 13 12 12 13 16 15 19 21 24 21 18 16 16 16 14 12 11 10 10 11 8 6 18 8 7 2 2 1 1 0
8 8 6 7 8 9 9 6 11 17 16 15 17 17 15 12 14 12 7 7 5 6 11 12 15 13 15 19 19 18 17 19 19 18 17 16 15 13 12 9 9 8 8 9 8 6 1 0 -1 -2 2 1 1 3
-1 -3 -3 1 0 -3 -4 -6 -7 -2 4 9 10 11 11 12 9 12 14 12 10 10 15 15 15 14 16 18 21 22 21 19 19 18 16 15 13 11 10 9 8 9 9 7 6 2 -2 -3 -3 -2 -2 -3 -2 -2
-14 -15 -16 -11 -7 -6 -8 -9 -8 -8 -6 -1 3 6 5 9 8 12 16 15 13 12 12 14 14 14 14 14 15 17 19 20 23 24 24 23 22 18 11 7 8 9 8 6 5 1 -1 -5 -5 -5 -3 -3 -3 -3
Lifted_Index
5 5 4 4 4 5 5 5 5 4 4 3 2 2 2 3 4 5 6 6 6 6 6 6 6 6 6 6 6 6 6 6 6 5 5 4 3 2 3 3 2 2 2 2 2 2 2 3 3 3 4 4 4 4
4 5 5 4 4 5 5 5 5 5 4 4 3 2 2 3 4 5 6 6 6 6 6 6 6 6 6 6 6 6 6 6 6 6 6 5 4 3 3 3 3 3 3 3 2 2 3 4 4 4 4 4 4 4
4 4 5 5 4 5 5 6 6 6 5 5 4 3 3 3 4 5 6 6 6 6 6 6 6 6 6 7 7 6 6 6 6 6 6 6 5 4 4 3 4 4 4 3 3 3 3 4 5 5 5 5 5 5
3 4 5 5 5 5 5 6 6 7 6 6 6 4 3 3 4 5 6 6 6 6 6 6 6 7 7 7 7 7 7 6 6 7 7 6 6 6 5 4 4 4 4 3 3 3 3 4 4 5 5 6 6 6
2 3 4 5 5 5 5 6 7 7 7 7 6 5 4 3 3 4 5 6 6 6 6 6 7 7 7 7 7 7 7 7 7 7 7 7 7 6 5 4 4 4 4 4 4 4 4 4 4 5 5 6 6 6
2 3 4 5 5 5 6 6 7 7 7 8 7 6 5 4 3 4 5 6 6 6 6 6 6 7 7 7 7 7 7 7 7 7 7 7 7 7 5 3 3 4 4 4 5 5 5 5 5 5 5 6 6 6
2 2 4 5 6 5 6 6 7 8 8 8 7 6 5 4 3 4 5 5 6 6 5 5 6 6 7 7 7 7 7 7 7 7 7 7 8 7 5 3 4 5 5 5 5 6 6 6 6 6 6 6 6 6
2 2 3 5 6 6 6 6 7 7 8 8 7 6 5 4 4 4 5 5 6 5 5 5 5 6 7 7 7 7 7 7 7 7 7 7 7 6 5 4 4 5 5 5 6 6 7 7 7 6 6 6 6 6
3 3 3 4 5 6 6 6 7 7 8 8 7 5 4 4 4 4 5 5 5 5 5 5 4 5 6 6 6 7 7 6 7 7 7 6 6 5 4 4 4 5 5 6 6 6 7 7 7 7 7 7 7 7
4 4 4 4 5 6 6 6 7 6 6 7 6 4 4 4 4 4 4 5 5 5 5 5 5 5 6 6 6 6 7 6 6 6 6 6 5 5 4 4 5 5 6 6 6 7 7 7 7 7 7 7 7 7
4 4 4 4 5 6 6 7 7 6 6 6 5 4 4 4 4 4 3 4 4 4 5 5 5 5 6 6 6 6 6 6 6 6 6 5 5 4 4 4 5 6 7 7 7 7 8 8 8 8 8 8 8 8
4 4 4 5 5 6 7 7 7 6 6 6 5 5 5 4 3 3 3 3 4 4 4 4 4 5 5 5 5 5 5 5 5 5 5 5 5 4 4 5 6 7 7 8 8 8 8 8 8 8 8 8 8 8
4 5 5 5 6 7 7 8 8 7 6 5 4 4 4 3 3 3 3 3 3 4 4 3 4 4 5 5 4 4 4 4 4 4 4 4 4 5 5 6 7 8 8 8 8 8 8 8 8 8 8 8 8 8
5 5 5 6 6 7 8 8 8 7 7 5 4 3 3 3 3 3 3 3 3 3 3 3 3 4 4 4 4 3 3 3 3 3 4 4 5 6 7 7 7 7 7 8 8 8 8 8 8 8 8 8 8 8
5 6 6 6 7 7 8 8 8 7 6 5 4 3 3 3 3 3 3 3 3 3 3 4 4 4 4 4 4 3 3 3 3 3 4 5 7 7 7 7 7 6 7 7 8 8 8 8 8 8 8 8 8 8
6 6 6 6 7 8 8 9 8 7 6 5 4 4 3 3 3 3 3 3 3 3 4 4 4 3 4 4 4 3 3 3 3 4 6 7 7 8 8 7 7 7 7 7 8 8 8 8 8 8 8 8 8 8
6 6 6 6 7 8 9 9 8 7 6 5 5 5 4 4 4 4 4 4 4 4 3 3 3 3 3 3 3 3 3 3 4 6 8 8 8 8 9 8 8 8 7 7 8 8 8 8 8 8 7 7 8 8
6 6 6 6 8 9 9 9 8 7 6 5 5 5 5 5 5 5 5 5 4 4 3 3 2 2 2 2 3 3 4 4 6 7 9 9 9 9 9 9 9 8 8 8 7 8 8 8 7 7 7 7 7 7
6 6 6 7 8 9 9 9 8 7 6 6 6 6 6 6 6 6 5 5 5 4 3 3 3 3 3 3 4 4 5 6 7 7 8 9 9 9 9 9 10 9 9 8 8 8 7 7 7 7 7 7 7 7
5 5 6 7 8 9 9 9 8 7 6 6 6 6 6 6 6 6 6 5 5 4 3 3 4 4 5 5 6 6 6 7 7 7 7 8 8 9 9 9 9 10 9 9 9 8 8 8 8 7 7 7 6 6
5 6 6 8 8 9 9 9 9 8 7 6 6 6 6 6 6 6 6 6 5 4 4 5 6 7 8 8 8 8 8 8 8 8 8 8 9 9 9 10 10 10 10 9 9 9 9 9 9 9 8 7 7 7
5 6 6 7 8 8 9 9 9 8 8 8 7 7 7 6 6 7 7 7 6 6 7 7 8 9 9 10 10 10 10 10 10 10 10 10 11 11 11 11 11 11 11 11 10 10 10 10 10 10 9 9 9 9
4 5 6 6 7 8 8 8 8 9 9 8 8 8 8 8 8 8 8 8 8 9 9 9 9 10 10 10 11 11 11 11 12 12 12 12 12 12 12 12 12 12 12 12 12 11 11 11 11 11 10 10 10 10
3 4 4 5 6 7 7 8 8 8 9 9 8 9 9 9 9 9 9 9 9 10 10 10 10 10 10 10 10 11 11 11 11 12 12 12 12 12 12 12 12 12 11 11 12 12 11 11 11 10 10 10 10 10
3 3 3 4 5 5 6 7 7 8 8 8 8 8 9 9 9 8 8 9 10 10 10 10 10 10 10 10 10 10 10 11 11 11 11 11 11 11 11 11 11 11 11 11 11 10 10 10 9 9 9 9 9 9
2 2 3 3 3 4 5 5 6 7 8 8 8 8 8 8 8 8 8 9 9 9 10 10 10 10 10 10 10 10 10 10 10 10 11 11 11 10 10 10 10 10 10 10 10 9 9 9 9 8 8 9 9 9
2 2 2 2 3 3 3 4 5 6 6 7 7 7 7 7 7 8 8 9 9 9 9 9 9 9 9 9 10 10 10 10 10 11 11 11 10 10 10 10 9 10 10 10 10 10 10 9 9 9 9 10 10 10
2 2 2 2 2 2 2 2 3 4 5 6 6 6 7 7 7 7 8 8 8 9 9 9 9 9 9 9 10 10 10 10 10 10 10 10 10 10 10 10 10 10 11 11 11 11 11 11 10 10 10 10 10 11
1 1 1 1 1 1 2 2 2 3 4 4 5 5 6 6 7 7 8 8 8 8 8 8 8 8 8 9 9 10 10 9 9 9 9 9 9 10 11 11 11 11 11 11 11 11 11 10 10 10 10 10 10 10
2 2 2 2 2 2 2 2 2 3 3 4 4 5 5 6 7 7 7 7 7 7 7 7 7 7 7 8 8 8 9 9 9 9 8 9 9 10 10 10 10 10 10 10 10 10 10 10 10 10 10 10 10 10
3 3 3 3 3 3 3 3 3 3 3 3 3 4 4 5 6 7 7 7 7 7 7 6 6 6 6 7 7 7 8 8 9 9 8 9 9 9 9 9 9 9 9 9 9 9 9 9 9 9 9 9 9 10
4 4 4 4 4 4 4 4 4 4 3 3 3 3 4 4 5 6 8 8 7 6 6 6 6 6 6 6 6 6 7 7 8 8 8 8 8 8 8 8 8 8 8 8 9 8 8 8 8 9 9 9 10 10
4 4 4 4 4 4 5 4 4 4 4 4 3 3 3 4 4 6 8 8 7 6 6 6 6 6 6 6 6 6 6 7 7 7 7 8 8 8 8 8 8 8 8 8 8 8 8 8 8 9 9 9 10 10